Regional Weather Roundup
Issued by NWS

Home | Current Version | Previous Version | Text Only | Print | Product List | Glossary Off
Versions: 1 2 3 4 5 6 7 8 9 10 11 12 13 14 15 16 17 18 19 20 21 22 23 24 25 26 27 28 29 30 31 32 33 34 35 36 37 38 39 40 41 42 43 44 45 46 47 48 49 50

000
ASUS43 KOAX 061402
RWRNE

WEATHER ROUNDUP FOR NEBRASKA
NATIONAL WEATHER SERVICE OMAHA NE
900 AM CDT WED MAY 06 2015

NOTES: SATELLITE DATA IS BEING USED TO AUGMENT CLOUD COVER ABOVE
       12000 FEET.
       "FAIR" INDICATES FEW OR NO CLOUDS BELOW 12,000 FEET WITH NO
       SIGNIFICANT WEATHER AND/OR OBSTRUCTIONS TO VISIBILITY.

  * THESE STATIONS DO NOT REPORT WEATHER SUCH AS RAIN...SNOW OR FOG.

NEZ001>004-019>022-054>056-061500-
NEBRASKA PANHANDLE

CITY           SKY/WX    TMP DP  RH WIND       PRES   REMARKS
SCOTTSBLUFF    CLOUDY    53  52  96 SE12      29.68R FOG
ALLIANCE       CLOUDY    53  51  93 SE13      29.68F
CHADRON        LGT RAIN  54  53  97 NE7       29.68F
KIMBALL        CLOUDY    51  51  99 E7        29.66S FOG
SIDNEY         CLOUDY    51  50  96 SE15      29.67S
$$

NEZ057>060-069>072-079>082-061500-
SOUTHWEST NEBRASKA

CITY           SKY/WX    TMP DP  RH WIND       PRES   REMARKS
NORTH PLATTE   LGT RAIN  59  57  93 SE9       29.71F
IMPERIAL       CLOUDY    56  52  86 SE8       29.69S
MCCOOK         CLOUDY    60  56  86 S10       29.70F
$$

NEZ005>010-023>029-035>040-094-061500-
NORTH CENTRAL NEBRASKA

CITY           SKY/WX    TMP DP  RH WIND       PRES   REMARKS
VALENTINE      CLOUDY    60  57  89 SE10      29.74F
AINSWORTH      CLOUDY    60  59  95 SE15      29.75S
BROKEN BOW     LGT RAIN  61  58  90 SE16G24   29.72F FOG
ORD            CLOUDY    61  57  87 SE8       29.74F
$$

NEZ041-046>049-061>064-073>077-083>087-061500-
SOUTH CENTRAL NEBRASKA

CITY           SKY/WX    TMP DP  RH WIND       PRES   REMARKS
GRAND ISLAND   CLOUDY    61  59  93 S10       29.77S
AURORA         CLOUDY    61  61  99 S10       29.77F
HASTINGS       LGT RAIN  60  58  92 S13       29.75F
KEARNEY *      CLOUDY    61  57  88 S13G21    29.75S
$$

NEZ011>018-030>034-042>045-061500-
NORTHEAST NEBRASKA

CITY           SKY/WX    TMP DP  RH WIND       PRES   REMARKS
NORFOLK        LGT RAIN  62  60  93 SE17      29.78F FOG
COLUMBUS *     CLOUDY    61  55  82 SE16G22   29.79F
TEKAMAH        CLOUDY    66  61  84 SE18      29.84F
$$

NEZ050>053-065>068-078-088>093-061500-
SOUTHEAST NEBRASKA

CITY           SKY/WX    TMP DP  RH WIND       PRES   REMARKS
LINCOLN        CLOUDY    64  61  90 S21G28    29.81S
OMAHA EPPLEY   CLOUDY    67  61  81 SE22G28   29.84F
FALLS CITY     PTSUNNY   66  59  78 S23G30    29.87R
NEBRASKA CITY  CLOUDY    64  60  86 S17G25    29.86R
PLATTSMOUTH    CLOUDY    64  59  81 SE16G24   29.85S
$$

NEZ044-045-051>053-067-061500-
OMAHA AREA

CITY           SKY/WX    TMP DP  RH WIND       PRES   REMARKS
OMAHA EPPLEY   CLOUDY    67  61  81 SE22G28   29.84F
PLATTSMOUTH    CLOUDY    64  59  81 SE16G24   29.85S
$$


USA.gov is the U.S. government's official web portal to all federal, state and local government web resources and services.